Weather History for Gadsden, AL

Change the Weather History Date:

Sunday, April 21, 2013

  Actual Average Record
Temperature  
Mean Temperature 53 °F -  
Max Temperature 71 °F 70 °F 86 °F (1930)
Min Temperature 35 °F 47 °F 30 °F (1950)
Degree Days  
Heating Degree Days 12    
Growing Degree Days 3 (Base 50)    
Moisture  
Dew Point 39 °F    
Average Humidity 61    
Maximum Humidity 93    
Minimum Humidity 31    
Precipitation  
Precipitation 0.00 in - - ()
Sea Level Pressure  
Sea Level Pressure 30.27 in    
Wind  
Wind Speed 3 mph (ENE)    
Max Wind Speed 15 mph    
Max Gust Speed 24 mph    
Visibility 10 miles    
Events      
Averages and records for this station are not official NWS values.
T = Trace of Precipitation, MM = Missing Value Source: NWS Daily Summary

Daily Weather History Graph

Daily Weather History Graph

Search for Another Location

Airport:

Trip Planner

Search our weather history database for the weather conditions in past years. The results will help you decide how hot, cold, wet, or windy it might be!

Date:

Astronomy

Apr. 21, 2013 Rise Set
Actual Time 6:05 AM CDT 7:20 PM CDT
Civil Twilight 5:39 AM CDT 7:46 PM CDT
Nautical Twilight 5:08 AM CDT 8:17 PM CDT
Astronomical Twilight 4:36 AM CDT 8:50 PM CDT
Moon 3:16 PM CDT (4/21) 3:15 AM CDT (4/21)
Length of Visible Light 14h 06m
Length of Day
13h 14m
Waxing Gibbous, 80% of the Moon is Illuminated
Apr 21
Waxing Gibbous
Apr 25
Full
May 2
Last Quarter
May 9
New
May 17
First Quarter

Hourly Weather History & Observations

Time (CDT) Temp. Dew Point Humidity Pressure Visibility Wind Dir Wind Speed Gust Speed Precip Events Conditions
12:15 AM 42.8 °F 37.4 °F 81% 30.26 in 10.0 mi Calm Calm - N/A   Clear
12:35 AM 42.8 °F 37.4 °F 81% 30.26 in 10.0 mi Calm Calm - N/A   Clear
12:55 AM 41.0 °F 35.6 °F 81% 30.27 in 10.0 mi Calm Calm - N/A   Clear
1:15 AM 41.0 °F 35.6 °F 81% 30.26 in 10.0 mi Calm Calm - N/A   Clear
1:35 AM 39.2 °F 35.6 °F 87% 30.26 in 10.0 mi Calm Calm - N/A   Clear
1:55 AM 41.0 °F 35.6 °F 81% 30.26 in 10.0 mi Calm Calm - N/A   Clear
2:15 AM 39.2 °F 35.6 °F 87% 30.26 in 10.0 mi Calm Calm - N/A   Clear
2:35 AM 39.2 °F 35.6 °F 87% 30.26 in 10.0 mi Calm Calm - N/A   Clear
2:55 AM 39.2 °F 35.6 °F 87% 30.26 in 10.0 mi Calm Calm - N/A   Clear
3:15 AM 39.2 °F 35.6 °F 87% 30.27 in 10.0 mi Calm Calm - N/A   Clear
3:35 AM 39.2 °F 35.6 °F 87% 30.27 in 10.0 mi Calm Calm - N/A   Clear
3:55 AM 39.2 °F 33.8 °F 81% 30.27 in 10.0 mi Calm Calm - N/A   Clear
4:15 AM 37.4 °F 33.8 °F 87% 30.28 in 10.0 mi Calm Calm - N/A   Clear
4:35 AM 37.4 °F 33.8 °F 87% 30.27 in 10.0 mi Calm Calm - N/A   Clear
4:55 AM 37.4 °F 33.8 °F 87% 30.28 in 10.0 mi Calm Calm - N/A   Clear
5:15 AM 37.4 °F 33.8 °F 87% 30.28 in 10.0 mi Calm Calm - N/A   Clear
5:35 AM 35.6 °F 33.8 °F 93% 30.28 in 10.0 mi Calm Calm - N/A   Clear
5:55 AM 37.4 °F 33.8 °F 87% 30.28 in 10.0 mi Calm Calm - N/A   Clear
6:15 AM 35.6 °F 33.8 °F 93% 30.29 in 10.0 mi Calm Calm - N/A   Clear
6:35 AM 37.4 °F 33.8 °F 87% 30.30 in 10.0 mi Calm Calm - N/A   Clear
6:55 AM 39.2 °F 35.6 °F 87% 30.30 in 10.0 mi Calm Calm - N/A   Clear
7:15 AM 41.0 °F 35.6 °F 81% 30.31 in 10.0 mi Calm Calm - N/A   Clear
7:35 AM 42.8 °F 37.4 °F 81% 30.31 in 10.0 mi Calm Calm - N/A   Clear
7:55 AM 44.6 °F 37.4 °F 76% 30.31 in 10.0 mi Calm Calm - N/A   Clear
8:15 AM 48.2 °F 39.2 °F 71% 30.32 in 10.0 mi ENE 5.8 mph - N/A   Clear
8:35 AM 48.2 °F 39.2 °F 71% 30.32 in 10.0 mi ENE 8.1 mph - N/A   Clear
8:55 AM 51.8 °F 39.2 °F 62% 30.32 in 10.0 mi ENE 9.2 mph - N/A   Clear
9:15 AM 51.8 °F 39.2 °F 62% 30.33 in 10.0 mi ENE 10.4 mph - N/A   Clear
9:35 AM 53.6 °F 39.2 °F 58% 30.33 in 10.0 mi ENE 10.4 mph - N/A   Clear
9:55 AM 55.4 °F 39.2 °F 54% 30.33 in 10.0 mi ENE 10.4 mph - N/A   Clear
10:15 AM 57.2 °F 39.2 °F 51% 30.33 in 10.0 mi ENE 6.9 mph - N/A   Clear
10:35 AM 59.0 °F 39.2 °F 48% 30.33 in 10.0 mi ENE 6.9 mph - N/A   Clear
10:55 AM 60.8 °F 41.0 °F 48% 30.33 in 10.0 mi NE 6.9 mph - N/A   Clear
11:15 AM 62.6 °F 41.0 °F 45% 30.32 in 10.0 mi ENE 5.8 mph - N/A   Clear
11:35 AM 64.4 °F 41.0 °F 42% 30.32 in 10.0 mi NE 9.2 mph - N/A   Clear
11:55 AM 64.4 °F 39.2 °F 40% 30.31 in 10.0 mi East 4.6 mph - N/A   Clear
12:15 PM 64.4 °F 41.0 °F 42% 30.31 in 10.0 mi Calm Calm - N/A   Clear
12:35 PM 66.2 °F 42.8 °F 43% 30.30 in 10.0 mi NE 6.9 mph - N/A   Clear
12:55 PM 66.2 °F 42.8 °F 43% 30.29 in 10.0 mi NE 5.8 mph - N/A   Clear
1:15 PM 66.2 °F 42.8 °F 43% 30.28 in 10.0 mi ENE 4.6 mph - N/A   Clear
1:35 PM 68.0 °F 42.8 °F 40% 30.27 in 10.0 mi ENE 10.4 mph 16.1 mph N/A   Clear
1:55 PM 69.8 °F 42.8 °F 38% 30.26 in 10.0 mi NE 11.5 mph 17.3 mph N/A   Clear
2:15 PM 69.8 °F 39.2 °F 33% 30.25 in 10.0 mi NNE 8.1 mph - N/A   Clear
2:35 PM 69.8 °F 39.2 °F 33% 30.23 in 10.0 mi ENE 15.0 mph - N/A   Clear
2:55 PM 69.8 °F 39.2 °F 33% 30.22 in 10.0 mi ENE 10.4 mph - N/A   Clear
3:15 PM 71.6 °F 39.2 °F 31% 30.21 in 10.0 mi East 12.7 mph 24.2 mph N/A   Clear
3:35 PM 71.6 °F 39.2 °F 31% 30.21 in 10.0 mi ENE 8.1 mph 19.6 mph N/A   Clear
3:55 PM 71.6 °F 39.2 °F 31% 30.20 in 10.0 mi East 8.1 mph 17.3 mph N/A   Clear
4:15 PM 69.8 °F 39.2 °F 33% 30.20 in 10.0 mi ENE 11.5 mph 17.3 mph N/A   Clear
4:35 PM 68.0 °F 39.2 °F 35% 30.20 in 10.0 mi ENE 8.1 mph - N/A   Clear
4:55 PM 69.8 °F 39.2 °F 33% 30.20 in 10.0 mi NE 10.4 mph - N/A   Clear
5:15 PM 69.8 °F 39.2 °F 33% 30.21 in 10.0 mi East 13.8 mph - N/A   Partly Cloudy
5:35 PM 69.8 °F 39.2 °F 33% 30.21 in 10.0 mi East 11.5 mph - N/A   Partly Cloudy
5:55 PM 69.8 °F 39.2 °F 33% 30.21 in 3.0 mi ENE 9.2 mph - N/A   Clear
6:15 PM 68.0 °F 39.2 °F 35% 30.21 in 10.0 mi ENE 9.2 mph - N/A   Clear
6:35 PM 66.2 °F 39.2 °F 37% 30.22 in 10.0 mi NE 10.4 mph - N/A   Clear
6:55 PM 64.4 °F 41.0 °F 42% 30.22 in 10.0 mi ENE 8.1 mph - N/A   Partly Cloudy
7:15 PM 62.6 °F 41.0 °F 45% 30.22 in 10.0 mi East 6.9 mph - N/A   Partly Cloudy
7:35 PM 59.0 °F 42.8 °F 55% 30.23 in 10.0 mi ENE 4.6 mph - N/A   Clear
7:55 PM 57.2 °F 42.8 °F 59% 30.23 in 10.0 mi Calm Calm - N/A   Partly Cloudy
8:15 PM 57.2 °F 41.0 °F 55% 30.24 in 10.0 mi Calm Calm - N/A   Scattered Clouds
8:35 PM 55.4 °F 42.8 °F 63% 30.25 in 10.0 mi Calm Calm - N/A   Partly Cloudy
8:55 PM 55.4 °F 42.8 °F 63% 30.25 in 10.0 mi Calm Calm - N/A   Clear
9:15 PM 53.6 °F 42.8 °F 67% 30.26 in 10.0 mi Calm Calm - N/A   Clear
9:35 PM 55.4 °F 42.8 °F 63% 30.26 in 10.0 mi Calm Calm - N/A   Clear
9:55 PM 51.8 °F 42.8 °F 71% 30.25 in 10.0 mi Calm Calm - N/A   Clear
10:15 PM 51.8 °F 42.8 °F 71% 30.26 in 10.0 mi Calm Calm - N/A   Clear
10:35 PM 53.6 °F 42.8 °F 67% 30.26 in 10.0 mi Calm Calm - N/A   Clear
10:55 PM 51.8 °F 42.8 °F 71% 30.26 in 10.0 mi Calm Calm - N/A   Clear
11:15 PM 51.8 °F 41.0 °F 67% 30.26 in 10.0 mi Calm Calm - N/A   Clear
11:35 PM 51.8 °F 41.0 °F 67% 30.26 in 10.0 mi Calm Calm - N/A   Clear
11:55 PM 48.2 °F 41.0 °F 76% 30.26 in 10.0 mi Calm Calm - N/A   Clear